Torna al catalogo

FENGYUN 1C DEB

AttivoSSO
NORAD 29953·DEBRIS·🇨🇳 China

Lanciato May 10, 1999 da Taiyuan Satellite Launch Center

Loading…

Prossimi Passaggi (prossime 24 ore)

TLE

AggiornatoSource: Space-Track

Epoca: Sep 14, 2026, 17:58 UTC

1 29953U 99025KB  26257.74917176  .00000202  00000-0  18666-3 0  9991
2 29953  98.9631 239.7328 0104352 233.7822 304.8172 13.91059501996993

Traccia FENGYUN 1C DEB in tempo reale con AllMySat

Download on the App Store